{"data":{"norad_id":61194,"intl_designator":"2024-169F","name":"JILIN-01 KUANFU 02B 6","alt_names":[],"object_type":"PAYLOAD","status":"ACTIVE","operator":null,"country":"PRC","launch_date":"2024-09-20","launch_site_code":"TAISC","launch_vehicle":null,"mission":null,"orbit_class":"UNKNOWN","rcs_meters":null,"size_class":null,"mass_kg":null,"dimensions":null,"purposes":[],"wikipedia_slug":null,"has_3d_model":false,"image_url":null,"decayed_at":null,"tle_current":{"epoch":"2026-05-25T04:53:22.785216Z","epoch_age_seconds":61464,"freshness":"FRESH","line1":"1 61194U 24169F   26145.20373594  .00003761  00000+0  24318-3 0  9991","line2":"2 61194  97.5543 235.1224 0017447  44.8963 315.3673 15.08684002 92375","mean_motion":15.08684002,"eccentricity":0.0017447,"inclination_deg":97.5543,"raan_deg":235.1224,"arg_perigee_deg":44.8963,"mean_anomaly_deg":315.3673,"bstar":0.00024318,"rev_number":9237,"period_min":95.447422925613,"perigee_km":528.14979562775,"apogee_km":552.29071142821,"semimajor_km":6918.357253528,"source":"CELESTRAK","updated_at":"2026-05-25T13:38:02.313145Z"}}}